{"data":{"norad_id":62795,"epoch":"2026-05-25T02:44:37.226400Z","epoch_age_seconds":58468,"freshness":"FRESH","line1":"1 62795U 25016L   26145.11431975  .00000114  00000+0  15796-3 0  9998","line2":"2 62795  88.9717  86.0873 0011894 226.1309 133.8860 13.51009061 69302","mean_motion":13.51009061,"eccentricity":0.0011894,"inclination_deg":88.9717,"raan_deg":86.0873,"arg_perigee_deg":226.1309,"mean_anomaly_deg":133.886,"bstar":0.00015796,"rev_number":6930,"period_min":106.58699793872,"perigee_km":1059.6912017641,"apogee_km":1077.4053767302,"semimajor_km":7446.6852892471,"source":"CELESTRAK","updated_at":"2026-05-25T13:38:03.253241Z"}}